Regional Weather Roundup
Issued by NWS San Angelo, TX

Home | Current Version | Previous Version | Text Only | Print | Product List | Glossary Off
Versions: 1 2 3 4 5 6 7 8 9 10 11 12 13 14 15 16 17 18 19 20 21 22 23 24 25 26 27 28 29 30 31 32 33 34 35 36 37 38 39 40 41 42 43 44 45 46 47 48 49 50

000
ASUS44 KSJT 271511
RWRSJT
WEST CENTRAL TEXAS REGIONAL WEATHER ROUNDUP
NATIONAL WEATHER SERVICE SAN ANGELO TX
1000 AM CDT TUE SEP 27 2016

NOTE: "FAIR" INDICATES FEW OR NO CLOUDS BELOW 12,000 FEET WITH NO
SIGNIFICANT WEATHER AND/OR OBSTRUCTIONS TO VISIBILITY.

TXZ049-054-064>066-071>073-076>078-098-099-113-114-127-128-139-140-
154-155-168>170-271600
...LOCATIONS ACROSS WEST CENTRAL TEXAS...

CITY           SKY/WX    TMP DP  RH WIND       PRES   REMARKS
SAN ANGELO     CLOUDY    66  49  54 NW6       30.21R
ABILENE        PTSUNNY   62  52  69 N3        30.20S
DYESS AFB      CLOUDY    62  49  63 NW3       30.19R
JUNCTION       CLOUDY    67  32  27 N6        30.17S
SWEETWATER     PTSUNNY   62  48  60 W5        30.24S
BROWNWOOD      CLOUDY    64  54  68 NW7       30.18R
COLEMAN        CLOUDY    66  51  57 N6        30.19S
SONORA         MOSUNNY   64  48  55 N8        30.25R
OZONA          FAIR      63  45  51 N5        30.26R
BRADY          NOT AVBL
$$

TEXAS PANHANDLE/OKLAHOMA PANHANDLE

CITY           SKY/WX    TMP DP  RH WIND       PRES   REMARKS
AMARILLO       SUNNY     65  40  39 W7        30.23S
BORGER         SUNNY     65  41  41 W8        30.20F
CANADIAN       SUNNY     58  50  75 CALM      30.18F
DALHART        SUNNY     66  39  37 NW6       30.24S
DUMAS          SUNNY     65  41  40 W12       30.22S
GUYMON         NOT AVBL
HEREFORD       MOSUNNY   65  45  48 NW3       30.25F
PAMPA          SUNNY     68  42  38 NW9       30.21F
PERRYTON       SUNNY     71  42  35 W12       30.18S
$$

SOUTHERN PANHANDLE/SOUTH PLAINS/ROLLING PLAINS

CITY           SKY/WX    TMP DP  RH WIND       PRES   REMARKS
LUBBOCK        PTSUNNY   64  43  46 N7        30.23F
SNYDER           N/A     61  46  56 CALM      30.23R
CHILDRESS      CLOUDY    61  48  62 NW6       30.20F
SEMINOLE       SUNNY     61  50  66 CALM      30.27R
$$

PERMIAN BASIN

CITY           SKY/WX    TMP DP  RH WIND       PRES   REMARKS
MIDLAND        CLOUDY    60  52  74 W10       30.25R
ODESSA         CLOUDY    59  51  75 NW7       30.26S
WINK           PTSUNNY   58  50  75 W5        30.25S
$$

FAR WEST/SOUTHWEST MOUNTAINS/TRANS PECOS

CITY           SKY/WX    TMP DP  RH WIND       PRES   REMARKS
ALPINE         CLOUDY    52  46  82 CALM      30.35S
DRYDEN         NOT AVBL
EL PASO        CLOUDY    58  43  57 CALM      30.28R
FORT STOCKTON  CLOUDY    56  51  84 SW5       30.26S
GUADALUPE PASS CLOUDY    56  30  37 E13       30.32R
MARFA          CLOUDY   N/A N/A N/A N3        30.31R
PECOS          CLOUDY    59  49  68 SW6       30.27R
$$

DALLAS/FORT WORTH METROPLEX

CITY           SKY/WX    TMP DP  RH WIND       PRES   REMARKS
DFW AIRPORT    PTSUNNY   71  53  52 N6        30.12S
FTW MEACHAM    PTSUNNY   68  50  52 NW6       30.14R
DAL-EXECUTIVE  MOSUNNY   70  54  56 N7        30.12S
GRAND PRAIRIE  SUNNY     68  52  56 NW5       30.14F
ADDISON        MOSUNNY   70  54  56 NW3       30.14R
MESQUITE       MOSUNNY   66  55  68 N6        30.12S
LANCASTER      PTSUNNY   69  51  52 NW7       30.13S
$$

NORTH CENTRAL TEXAS

CITY           SKY/WX    TMP DP  RH WIND       PRES   REMARKS
SHRMAN/DENISON CLOUDY    62  58  87 W3        30.16R
GAINESVILLE      N/A     63  49  60 N6        30.17S
BRIDGEPORT     CLOUDY    65  55  71 NW5       30.18S
DENTON         MOSUNNY   68  51  54 N7        30.14S
WAXAHACHIE     CLOUDY    68  57  67 NW6       30.14S
GRANBURY       CLOUDY    67  52  59 NW5       30.17R
$$

WESTERN NORTH TEXAS

CITY           SKY/WX    TMP DP  RH WIND       PRES   REMARKS
WICHITA FALLS  CLOUDY    60  51  72 NW6       30.17S
VERNON         MOSUNNY   61  48  62 CALM      30.19S
BRECKENRIDGE     N/A     63  53  69 CALM      30.18S
COMANCHE       CLOUDY    64  55  72 N7        30.18R
$$

CENTRAL AND SOUTH CENTRAL TEXAS

CITY           SKY/WX    TMP DP  RH WIND       PRES   REMARKS
AUSTIN/BERGSTM CLOUDY    71  62  73 N12       30.10R
WACO           CLOUDY    69  61  75 N7        30.12R
HILLSBORO      CLOUDY    68  58  71 N6        30.13R
TEMPLE         CLOUDY    69  61  75 N12       30.13R
KILLEEN-GRAY   CLOUDY    68  60  74 NE8       30.13R
FORT HOOD      CLOUDY    68  59  74 N9        30.10S
GEORGETOWN     CLOUDY    70  57  64 N9        30.12R
LAGO VISTA     CLOUDY    68  61  77 N8        30.13S
SAN MARCOS     CLOUDY    70  63  78 N10       30.12
NEW BRAUNFELS  CLOUDY    71  64  78 N12       30.09R
RANDOLPH AFB   CLOUDY    70  65  84 N13       30.09S
SAN ANTONIO    CLOUDY    69  62  78 N13       30.10R
STINSON        CLOUDY    73  63  70 N9        30.07S
PLEASANTON     NOT AVBL
LA GRANGE      MOSUNNY   73  66  78 N3        30.06R
GIDDINGS       MOSUNNY   72  63  74 NE7       30.12R
$$

EAST TEXAS

CITY           SKY/WX    TMP DP  RH WIND       PRES   REMARKS
PARIS          PTSUNNY   68  54  60 NE3       30.13R
CLARKSVILLE    NOT AVBL
TYLER          CLOUDY    71  58  63 NE8       30.11R
LONGVIEW       MOSUNNY   73  58  59 NE9       30.09S
PALESTINE      CLOUDY    70  60  72 N6        30.12R
NACOGDOCHES    MOSUNNY   72  57  60 N7        30.06S
$$

TEXAS HILL COUNTRY AND EDWARDS PLATEAU

CITY           SKY/WX    TMP DP  RH WIND       PRES   REMARKS
LLANO          CLOUDY    66  66 100 CALM      30.18S
HORSESHOE BAY  CLOUDY    69  60  74 N6        30.14R
KERRVILLE      CLOUDY    67  62  83 N9        30.15R
FREDERICKSBRG  CLOUDY    66  57  74 NE9       30.16R
ROCKSPRINGS    MOSUNNY   64  54  68 N7G16     30.20R
HONDO          CLOUDY    72  62  71 N14       30.11R
UVALDE         CLOUDY    70  61  72 CALM      30.13S
DEL RIO        CLOUDY    68  57  68 NW12      30.16R
$$

SOUTHEAST TEXAS

CITY           SKY/WX    TMP DP  RH WIND       PRES   REMARKS
COLLEGE STN    SUNNY     74  63  68 N9        30.07S
CALDWELL       NOT AVBL
CROCKETT       NOT AVBL
BRENHAM        MOSUNNY   74  66  77 N5        30.09R
HUNTSVILLE     SUNNY     71  60  68 NE6       30.08R
CONROE         CLOUDY    72  65  78 N6        30.06S
HOUSTON BUSH   PTSUNNY   75  68  78 N9        30.05R
HOUSTON HOBBY  CLOUDY    74  68  81 NE8       30.03R
PERLAND        CLOUDY    77  68  73 NE6       30.05R
WHARTON        MOSUNNY  N/A N/A N/A NE7       30.05S
$$

THE UPPER TEXAS COAST

CITY           SKY/WX    TMP DP  RH WIND       PRES   REMARKS
ORANGE         SUNNY     73  61  65 NE6       30.05R
PORT ARTHUR    MOSUNNY   75  65  70 N7        30.02R
GALVESTON      CLOUDY    76  70  82 N13       30.04R
ANGLETON       CLOUDY    77  71  82 NE12      30.03R
BAY CITY       CLOUDY    74  72  92 N5        30.04R
$$

TEXAS COASTAL BEND, RIO GRANDE PLAINS DEEP SOUTH TEXAS

CITY           SKY/WX    TMP DP  RH WIND       PRES   REMARKS
VICTORIA       CLOUDY    73  67  81 N12       30.06R
BEEVILLE       CLOUDY    72  69  92 N7        30.07R
ROCKPORT       CLOUDY    74  68  81 N12       30.04R
PORT ARANSAS   CLOUDY    73  71  93 N13       30.04R
PORT LAVACA    MOSUNNY   74  71  90 N13       30.05R
CORPUS CHRISTI CLOUDY    72  69  90 N10       30.05R
KINGSVILLE NAS CLOUDY    71  70  96 N10       30.06R
COTULLA        CLOUDY    73  62  68 N8        30.10R
LAREDO         CLOUDY    68  64  87 NW10      30.12R
BROWNSVILLE    LGT RAIN  75  73  93 N9        30.01R FOG
PORT ISABEL    CLOUDY    74  73  97 VRB7      30.01R FOG
HEBBRONVILLE   CLOUDY    69  65  88 N8        30.10R
MCALLEN        CLOUDY    75  68  78 N14       30.06R
WESLACO        CLOUDY    72  68  88 N12       30.04R FOG
FALFURRIAS     CLOUDY    70  67  88 N6        30.06S
EDINBURG       CLOUDY    74  67  80 N13       30.06R
$$




USA.gov is the U.S. government's official web portal to all federal, state and local government web resources and services.